This demonstration page uses our WeatherBlox Daily Observations layout. Learn more.

Left ArrowRight Arrow

Hourly Observations for January 9, 2022

Temp ( °F °C ) Dew Point ( °F °C ) Humidity (%) Winds ( mph kmh ) Pressure ( in mb ) Visibility ( mi km ) Precip ( " mm )
12:15 am 00:15 Clear 24 -4.3 15 -9.2 69 69 N 14 22 30.43 1030 10 16 0.00 0.00
12:35 am 00:35 Clear 24 -4.5 15 -9.2 70 70 N 18 30 30.45 1031 10 16 0.00 0.00
12:55 am 00:55 Clear 23 -5.1 15 -9.5 72 72 N 14 22 30.48 1032 10 16 0.00 0.00
1:15 am 01:15 Clear 22 -5.8 14 -10.2 71 71 N 18 30 30.49 1033 10 16 0.00 0.00
1:35 am 01:35 Clear 20 -6.6 11 -11.5 68 68 N 13 20 30.51 1033 10 16 0.00 0.00
1:55 am 01:55 Clear 19 -7.1 10 -12 68 68 N 18 30 30.53 1034 10 16 0.00 0.00
2:15 am 02:15 Clear 18 -7.6 10 -12.4 69 69 N 15 24 30.55 1035 10 16 0.00 0.00
2:35 am 02:35 Clear 18 -8 9 -12.8 69 69 N 14 22 30.58 1035 10 16 0.00 0.00
2:55 am 02:55 Clear 16 -8.7 9 -13 71 71 N 5 7 30.58 1036 10 16 0.00 0.00
3:17 am 03:17 Clear 16 -9 9 -13 73 73 N 10 17 30.61 1036 10 16 0.00 0.00
3:35 am 03:35 Clear 15 -9.2 8 -13.6 71 71 N 12 19 30.62 1037 10 16 0.00 0.00
3:55 am 03:55 Clear 15 -9.4 7 -14 70 70 N 9 15 30.63 1037 10 16 0.00 0.00
4:15 am 04:15 Clear 15 -9.6 6 -14.5 68 68 N 9 15 30.64 1038 10 16 0.00 0.00
4:35 am 04:35 Mostly Cloudy 15 -9.5 6 -14.2 69 69 N 10 17 30.65 1038 10 16 0.00 0.00
4:55 am 04:55 Partly Cloudy 14 -10.2 6 -14.6 70 70 N 10 17 30.66 1038 10 16 0.00 0.00
5:15 am 05:15 Clear 13 -10.5 6 -14.6 72 72 N 8 13 30.66 1038 10 16 0.00 0.00
5:35 am 05:35 Clear 12 -10.9 6 -14.7 74 74 N 8 13 30.68 1039 10 16 0.00 0.00
5:55 am 05:55 Clear 12 -11.1 6 -14.7 75 75 N 5 7 30.69 1039 10 16 0.00 0.00
6:15 am 06:15 Clear 11 -11.9 5 -15.1 77 77 Calm 30.71 1040 10 16 0.00 0.00
6:35 am 06:35 Clear 10 -12.2 5 -15.2 79 79 NW 3 6 30.72 1040 10 16 0.00 0.00
6:55 am 06:55 Clear 9 -12.7 4 -15.3 81 81 NW 5 7 30.74 1041 10 16 0.00 0.00
7:15 am 07:15 Clear 9 -13 3 -16 78 78 NW 6 9 30.75 1041 10 16 0.00 0.00
7:35 am 07:35 Clear 9 -12.8 4 -15.5 80 80 NW 5 7 30.75 1041 10 16 0.00 0.00
7:55 am 07:55 Clear 9 -12.9 4 -15.4 82 82 NW 6 9 30.76 1042 10 16 0.00 0.00
8:15 am 08:15 Sunny 8 -13.1 3 -15.9 80 80 NW 3 6 30.77 1042 10 16 0.00 0.00
8:35 am 08:35 Sunny 10 -12.4 5 -15.1 80 80 Calm 30.76 1042 10 16 0.00 0.00
8:55 am 08:55 Sunny 12 -11 7 -14 79 79 WNW 3 6 30.76 1042 10 16 0.00 0.00
9:15 am 09:15 Sunny 15 -9.7 8 -13.1 77 77 NW 5 7 30.75 1041 10 16 0.00 0.00
9:35 am 09:35 Sunny 17 -8.5 10 -12.5 73 73 WNW 6 9 30.76 1042 10 16 0.00 0.00
9:55 am 09:55 Sunny 19 -7.2 10 -12.1 68 68 NW 7 11 30.75 1041 10 16 0.00 0.00
10:15 am 10:15 Sunny 21 -6.1 11 -11.7 65 65 WNW 7 11 30.75 1041 10 16 0.00 0.00
10:35 am 10:35 Sunny 23 -5 12 -11.3 62 62 NW 7 11 30.75 1041 10 16 0.00 0.00
10:55 am 10:55 Sunny 25 -4 11 -11.8 55 55 W 7 11 30.74 1041 10 16 0.00 0.00
11:15 am 11:15 Sunny 26 -3.2 10 -12.2 50 50 WNW 7 11 30.72 1040 10 16 0.00 0.00
11:35 am 11:35 Sunny 27 -2.7 10 -12.1 49 49 W 7 11 30.71 1040 10 16 0.00 0.00
11:55 am 11:55 Sunny 28 -2.1 10 -12 47 47 WSW 6 9 30.70 1040 10 16 0.00 0.00
12:15 pm 12:15 Sunny 30 -1.2 11 -11.7 45 45 WSW 6 9 30.68 1039 10 16 0.00 0.00
12:35 pm 12:35 Sunny 30 -1 11 -11.4 46 46 WSW 6 9 30.67 1038 10 16 0.00 0.00
12:55 pm 12:55 Sunny 31 -0.3 13 -10.5 46 46 SW 7 11 30.64 1038 10 16 0.00 0.00
1:15 pm 13:15 Sunny 32 0 13 -10.7 45 45 SW 6 9 30.64 1037 10 16 0.00 0.00
1:35 pm 13:35 Sunny 32 0.1 13 -10.6 45 45 SW 8 13 30.63 1037 10 16 0.00 0.00
1:55 pm 13:55 Sunny 32 0.2 13 -10.5 45 45 SW 7 11 30.61 1037 10 16 0.00 0.00
2:15 pm 14:15 Sunny 32 0.2 13 -10.3 46 46 SSW 9 15 30.61 1037 10 16 0.00 0.00
2:35 pm 14:35 Sunny 32 0.2 13 -10.4 45 45 SSW 9 15 30.60 1036 10 16 0.00 0.00
2:55 pm 14:55 Sunny 33 0.3 13 -10.5 45 45 SW 12 19 30.60 1036 10 16 0.00 0.00
3:15 pm 15:15 Sunny 32 0.1 13 -10.7 44 44 SW 10 17 30.61 1036 10 16 0.00 0.00
3:35 pm 15:35 Sunny 32 0 13 -10.6 45 45 SW 10 17 30.61 1036 10 16 0.00 0.00
3:55 pm 15:55 Sunny 32 0 13 -10.5 45 45 SW 10 17 30.61 1036 10 16 0.00 0.00
4:15 pm 16:15 Sunny 32 -0.2 14 -10.2 47 47 SW 13 20 30.61 1037 10 16 0.00 0.00
4:35 pm 16:35 Sunny 31 -0.8 14 -10 50 50 SW 7 11 30.61 1037 10 16 0.00 0.00
4:55 pm 16:55 Sunny 29 -1.5 15 -9.5 55 55 SW 7 11 30.62 1037 10 16 0.00 0.00
5:15 pm 17:15 Sunny 28 -2 15 -9.2 58 58 SW 6 9 30.63 1037 10 16 0.00 0.00
5:35 pm 17:35 Clear 27 -2.8 15 -9.3 61 61 SW 7 11 30.63 1037 10 16 0.00 0.00
5:55 pm 17:55 Clear 26 -3.5 15 -9.5 64 64 SW 6 9 30.64 1038 10 16 0.00 0.00
6:15 pm 18:15 Clear 25 -4 14 -10 63 63 SSW 8 13 30.65 1038 10 16 0.00 0.00
6:35 pm 18:35 Clear 25 -4 13 -10.3 62 62 SSW 9 15 30.65 1038 10 16 0.00 0.00
6:55 pm 18:55 Clear 24 -4.5 13 -10.5 63 63 SSW 9 15 30.66 1038 10 16 0.00 0.00
7:15 pm 19:15 Clear 24 -4.6 13 -10.5 64 64 SSW 10 17 30.65 1038 10 16 0.00 0.00
7:35 pm 19:35 Clear 24 -4.4 13 -10.5 63 63 SSW 12 19 30.65 1038 10 16 0.00 0.00
7:55 pm 19:55 Clear 24 -4.6 13 -10.5 64 64 SSW 8 13 30.65 1038 10 16 0.00 0.00
8:15 pm 20:15 Clear 24 -4.5 14 -10.1 65 65 SW 10 17 30.65 1038 10 16 0.00 0.00
8:35 pm 20:35 Clear 24 -4.2 14 -10 64 64 SW 12 19 30.65 1038 10 16 0.00 0.00
8:55 pm 20:55 Clear 24 -4.4 15 -9.5 68 68 SW 8 13 30.66 1038 10 16 0.00 0.00
9:15 pm 21:15 Clear 24 -4.5 15 -9.2 70 70 SW 8 13 30.66 1038 10 16 0.00 0.00
9:35 pm 21:35 Clear 23 -4.8 15 -9.2 72 72 SW 6 9 30.66 1038 10 16 0.00 0.00
9:55 pm 21:55 Clear 23 -5 15 -9.2 73 73 WSW 6 9 30.67 1038 10 16 0.00 0.00
10:15 pm 22:15 Clear 26 -3.2 17 -8.1 69 69 W 9 15 30.64 1038 10 16 0.00 0.00
10:35 pm 22:35 Clear 27 -2.8 18 -8 68 68 W 13 20 30.63 1037 10 16 0.00 0.00
10:55 pm 22:55 Clear 28 -2.3 18 -7.7 67 67 W 10 17 30.63 1037 10 16 0.00 0.00
11:15 pm 23:15 Clear 27 -2.7 18 -7.6 69 69 W 9 15 30.64 1038 10 16 0.00 0.00
11:35 pm 23:35 Clear 27 -2.8 19 -7.4 71 71 W 12 19 30.63 1037 10 16 0.00 0.00
11:55 pm 23:55 Clear 26 -3.2 19 -7.5 72 72 W 12 19 30.64 1038 10 16 0.00 0.00

Powered by AerisWeather